TELSTAR 19V (43562 NORAD) Tracking and Keplerian Element Data

This shows tracking and keplerian element data for the satellite.

Feedback or suggestion? Click here.




ElementValue
Catalog43562
NameTELSTAR 19V
Epoch Orbit1047
Epoch Day130.8635549
Epoch Year2021
RAAN263.8176
Inclination0.0137
Eccentricity0.0001962
Argument of Perigee206.139
Mean Anonmoly6.7914
Mean Motion1.00268071
Decay Rate-2.74E-06
L11 43562U 18059A 21130.86355490 -.00000274 00000-0 00000-0 0 9994
L22 43562 0.0137 263.8176 0001962 206.1390 6.7914 1.00268071 10479

Live tracking and technical data element details for TELSTAR 19V (NORAD 43562). TELSTAR 19V can be tracked NOW for your location showing map with azimuth and elevation plus other details from your city location.

Track the satellite on the map from your city or location and see movement details for azimuth, elevation, latitude, longitude, range, height, and movement on the map or in text.







IsCatalogInMostPopularTable: catalog: 43562, numindb: 839
Update: records affected: 1



GetName: 43562 TELSTAR 19V

Hit Count: updated at: Tue, 11 May 2021 20:29:57 GMT